User: anonymous   Login
Location: Go�ngahuizen
(53.0821°N, 5.8849°E)
Time: 00:54:28
(UTC+00:00)
Language:

Cosmos 1943 - Orbit

View from above orbital plane
View from above orbital plane
View from above satellite
View from above satellite

Ground track
Ground track

The orbit data is extracted from the following two-line orbital elements,

1 19119U 88039A   20188.52981435 +.00000211 +00000-0 +13298-3 0  9995
2 19119 071.0033 279.4015 0011108 171.2154 274.4655 14.15152663659611
Epoch (UTC): 06 July 2020 12:42:55
Eccentricity: 0.0011108
inclination: 71.0033°
perigee height: 834 km
apogee height: 850 km
right ascension of ascending node: 279.4015°
argument of perigee: 171.2154°
revolutions per day: 14.15152663
mean anomaly at epoch: 274.4655°
orbit number at epoch: 65961

The dashed part of the orbit path shows where the satellite is in the earth's shadow,  

DLR